Airfield :
LOGIN :

Register | Disclaimer

   EN    FR    IT 

 










Legend :    VFR   Marginal VFR   IFR   Intensive IFR   Very Intensive IFR
Visi :
Ceiling :
>= 8 km
>= 3000ft
5 to 8 km
1000 to 3000 ft
1500m to 5 km
500 to 1000 ft
800 to 1500m
200 to 500 ft
< 800m
< 200 ft
Symbols :   Thunderstorms  Fog  Heavy snow  Heavy precipitations  Wind > 20 kt
SIGMETs :     Misc.  Thunderstorms  Icing  Turbulence  Mountain Waves  Volcanic Ashes







- Airport Elevation : 286 ft
- IATA code : FFD


EGVA - RAF Fairford

CURRENT METAR :
  • 182156Z AUTO 00000KT 9999 SCT070 08/06 A3015 RMK AO2 SLP215 T00750056 $

EXPIRED METARs :
  • 182056Z AUTO 00000KT 9999 BKN080 07/05 A3016 RMK AO2 SLP219 60000 T00710052 52008 $

Expired Forecast.
No reported NOTAMs for that airfield.



MET'MAP, your aeronautical weather chart ! - Copyright ORBIFLY December 2007 - Disclaimer

ORBIFLY MET'MAP TEAM :

Programming & Development : Alexandra Zaïnal
Concept & Development : Baudouin d'Aumeries
Co-Development & Prog : Marc-Olivier Méhu
Technical & hardware support : Manuel Goepfert

Contact : metmap@orbifly.com




SOURCES & CREDITS :

   NOAA